User: anonymous   Login
Location: Unspecified
(0.0000°N, 0.0000°E)
Time: 01:54:03
(UTC+00:00)
Language:

SICRAL 1B - Orbit

View from above orbital plane
View from above orbital plane
View from above satellite
View from above satellite

Ground track
Ground track

The orbit data is extracted from the following two-line orbital elements,

1 34810U 09020A   22263.24097000 0.00000000  00000-0  00000-0 0    07
2 34810   0.1150  97.5522 0003453 144.1930 215.8462  1.00270000    00
Epoch (UTC): 20 September 2022 05:46:59
Eccentricity: 0.0003453
inclination: 0.1150°
perigee height: 35772 km
apogee height: 35801 km
right ascension of ascending node: 97.5522°
argument of perigee: 144.1930°
revolutions per day: 1.00270000
mean anomaly at epoch: 215.8462°
orbit number at epoch: 0

The dashed part of the orbit path shows where the satellite is in the earth's shadow,  

DLR